#timestamp,LO_Frequency,Hit,StdDev 
1564668015.7,286046997.1,N
1564668035.6,286046997.4,N
1564668055.4,286046997.1,N
1564668075.2,286046997.4,N
1564668095.1,286046997.5,N
1564668096.0,286046997.5,N
1564668115.8,286046997.7,N
1564668135.7,286046997.3,N
1564668155.5,286046999.0,N
1564668175.3,286046997.0,N
1564668195.2,286046996.6,N
1564668215.0,286046997.3,N
1564668215.9,286046997.3,N
1564668235.8,286046997.1,N
1564668255.6,286046997.6,N
1564668275.4,286046997.2,N
1564668295.3,286046995.3,Y
1564668315.1,286046999.3,P
1564668335.9,286046999.1,N
1564668355.7,286046998.9,N
1564668375.5,286046998.8,N
1564668395.4,286046999.0,N
1564668415.2,286046999.0,N
1564668435.1,286046999.3,N
1564668436.0,286046999.3,N
1564668455.8,286046998.4,Y
1564668475.6,286047000.8,P
1564668495.5,286047000.9,N
1564668515.3,286047000.4,N
1564668535.1,286046998.1,N
1564668555.9,286046998.7,N
1564668575.7,286046998.2,N
1564668595.6,286046998.9,N
1564668615.4,286046998.7,N
1564668635.2,286046998.7,N
1564668655.1,286046999.0,N
1564668656.0,286046999.0,N
1564668675.8,286046996.8,Y
1564668695.7,286046997.0,P
1564668715.5,286046999.5,N
1564668735.3,286046999.6,N
1564668755.2,286046999.2,N
1564668775.0,286046999.1,N
1564668775.9,286046999.1,N
1564668795.8,286046996.6,Y
1564668815.6,286046998.9,P
1564668835.4,286046999.0,P
1564668855.3,286046999.5,P
1564668875.1,286046998.8,Y
1564668895.8,286046998.1,P
1564668915.7,286047001.2,N
1564668935.5,286046998.2,N
1564668955.4,286046998.2,N
1564668975.2,286047002.8,N
1564668995.0,286047001.0,N
1564668995.9,286047001.0,N
1564669015.8,286046998.5,N
1564669035.6,286046998.3,N
1564669055.5,286046998.4,N
1564669075.3,286046998.8,N
1564669095.1,286046998.5,N
1564669115.9,286046998.2,N
1564669135.7,286047000.7,N
1564669155.5,286046998.5,N
1564669175.4,286046998.1,N
1564669195.2,286047001.1,N
1564669215.1,286047000.7,N
1564669216.0,286047000.7,N
1564669235.8,286047000.8,N
1564669255.6,286047000.1,N
1564669275.5,286047002.1,N
1564669295.3,286047002.5,N
1564669315.1,286047002.0,N
1564669335.9,286047002.8,N
1564669355.7,286047002.3,N
1564669375.6,286046999.7,N
1564669395.4,286047002.3,N
1564669415.2,286047002.0,N
1564669435.1,286047001.7,N
1564669436.0,286047001.7,N
1564669455.8,286047001.8,N
1564669475.7,286047001.8,N
1564669495.5,286047001.8,N
1564669515.3,286047001.4,N
1564669535.2,286047002.1,N
1564669555.0,286047001.6,N
1564669555.9,286047001.6,N
1564669575.8,286047002.3,N
1564669595.6,286047001.8,N
1564669615.4,286047001.4,N
1564669635.3,286047003.9,N
1564669655.1,286047004.0,Y
1564669675.8,286047000.1,P
1564669695.7,286047002.6,P
1564669715.5,286047004.4,P
1564669735.4,286047002.4,N
1564669755.2,286047002.6,N
1564669775.0,286047002.7,N
1564669775.9,286047002.7,N
1564669795.8,286047001.9,N
1564669815.6,286047000.5,N
1564669835.5,286047002.4,N
1564669855.3,286047002.6,N
1564669875.1,286047002.3,N
1564669895.9,286047002.4,N
1564669915.7,286047002.7,N
1564669935.5,286047002.5,N
1564669955.4,286047002.2,N
1564669975.2,286047002.7,N
1564669995.1,286047002.6,N
1564669996.0,286047002.6,N
1564670015.8,286047002.0,N
1564670035.6,286047001.9,N
1564670055.5,286047001.3,N
1564670075.3,286047003.6,Y
1564670095.2,286047000.4,P
1564670115.9,286047002.8,P
1564670135.7,286047000.5,N
1564670155.6,286047000.4,N
1564670175.4,286047000.8,N
1564670195.3,286047001.2,N
1564670215.1,286047001.0,N
1564670216.0,286047001.0,N
1564670235.8,286046999.1,N
1564670255.7,286046998.4,N
1564670275.5,286046998.6,N
1564670295.3,286046998.2,N
1564670315.2,286047001.0,N
1564670335.0,286047000.0,N
1564670335.9,286047000.0,N
1564670355.8,286047000.5,N
1564670375.6,286047000.6,N
1564670395.4,286047000.0,N
1564670415.3,286047000.3,N
1564670435.1,286047000.3,N
1564670455.9,286046998.6,N
1564670475.7,286046998.2,N
1564670495.5,286047000.4,N
1564670515.4,286047000.7,N
1564670535.2,286047000.7,N
1564670555.0,286047001.2,N
1564670555.9,286047001.2,N
1564670575.8,286047000.8,N
1564670595.6,286047000.0,N
1564670615.5,286047000.2,N
1564670635.3,286047000.0,N
1564670655.1,286047000.6,N
1564670675.9,286047000.4,N
1564670695.7,286046999.9,N
1564670715.5,286047000.3,N
1564670735.4,286047000.9,N
1564670755.2,286046999.9,N
1564670775.1,286047000.6,N
1564670776.0,286047000.6,N
1564670795.8,286047000.5,N
1564670815.6,286047000.9,N
1564670835.5,286047000.5,N
1564670855.3,286047001.2,N
1564670875.2,286046998.1,Y
1564670895.9,286046999.3,P
1564670915.7,286046999.0,N
1564670935.6,286046998.5,N
1564670955.4,286046998.6,N
1564670975.3,286046998.6,N
1564670995.1,286047001.2,N
1564670996.0,286047001.2,N
1564671015.8,286047000.5,N
1564671035.7,286047000.3,N
1564671055.5,286047000.2,N
1564671075.3,286046999.9,N
1564671095.2,286047002.7,N
1564671115.0,286046999.9,N
1564671115.9,286046999.9,N
1564671135.8,286047002.4,N
1564671155.6,286047000.5,N
1564671175.4,286047000.7,N
1564671195.3,286047000.7,N
1564671215.1,286047000.5,N
1564671235.9,286047000.5,N
1564671255.7,286046998.1,N
1564671275.5,286046998.1,N
1564671295.4,286046998.9,N
1564671315.2,286046999.0,N
1564671335.0,286046998.6,N
1564671335.9,286046998.6,N
1564671355.8,286047000.6,N
1564671375.6,286047000.4,N
1564671395.5,286046999.9,N
1564671415.3,286047001.0,N
1564671435.1,286047000.0,N
1564671455.9,286046998.2,N
1564671475.7,286046998.6,N
1564671495.5,286046998.8,N
1564671515.4,286046998.8,N
1564671535.2,286046998.8,N
1564671555.1,286046999.5,N
1564671556.0,286046999.5,N
1564671575.8,286046998.8,N
1564671595.6,286046998.3,N
